EW9042 Weather Reports


time (UTC)temp
F
wind
direction
speed
knots
gust
knots
rain 1hr
in
rain 24hr
in
rain mn
in
humidity
%
barometer
mb
20260507194038 55 67 0.0 0.0 0.00 0.01 0.01 87 1013.3
20260507193538 55 67 0.0 0.0 0.00 0.01 0.01 87 1013.2
20260507193041 55 67 0.0 0.0 0.00 0.01 0.01 87 1013.3
20260507192542 55 67 0.0 0.0 0.00 0.01 0.01 87 1013.2
20260507192039 55 67 0.0 0.0 0.00 0.01 0.01 87 1013.2
20260507191537 55 67 0.0 0.0 0.00 0.01 0.01 87 1013.2
20260507191037 55 67 0.0 0.0 0.00 0.01 0.01 87 1013.2
20260507190537 55 67 0.0 0.0 0.00 0.01 0.01 87 1013.2
20260507190037 55 67 0.0 0.0 0.00 0.01 0.01 87 1013.2
20260507185537 55 67 0.0 0.0 0.00 0.01 0.01 87 1013.2
20260507185036 55 67 0.0 0.0 0.00 0.01 0.01 87 1013.2
20260507184538 55 67 0.0 0.0 0.00 0.01 0.01 87 1013.2
20260507184036 55 67 0.0 0.0 0.00 0.01 0.01 87 1013.1
20260507183535 55 67 0.0 0.0 0.00 0.01 0.01 87 1013.1
20260507183043 55 67 0.0 0.0 0.00 0.01 0.01 87 1013.1
20260507182536 55 67 0.0 0.0 0.00 0.01 0.01 87 1013.2
20260507182036 55 67 0.0 0.0 0.00 0.01 0.01 87 1013.1
20260507181535 56 67 0.0 0.0 0.00 0.01 0.01 87 1013.1
20260507181038 56 67 0.0 0.0 0.00 0.01 0.01 87 1013.1
20260507180536 56 69 0.0 0.0 0.00 0.01 0.01 87 1013.1
20260507180038 56 94 0.0 0.0 0.00 0.01 0.01 86 1013.2
20260507175535 56 94 0.0 0.0 0.00 0.01 0.01 86 1013.2
20260507175035 56 94 0.0 0.0 0.00 0.01 0.01 86 1013.2
20260507174541 56 94 0.0 0.0 0.00 0.01 0.01 85 1013.1
20260507174034 56 94 0.0 0.0 0.00 0.01 0.01 85 1013.1
20260507173534 56 94 0.0 0.0 0.00 0.01 0.01 85 1013.2
20260507173052 56 94 0.0 0.0 0.00 0.01 0.01 85 1013.2
20260507172635 56 94 0.0 0.0 0.00 0.01 0.01 85 1013.1
20260507172034 57 94 0.0 0.0 0.00 0.01 0.01 85 1013.1
20260507171543 57 94 0.0 0.0 0.00 0.01 0.01 84 1013.1
20260507171033 57 94 0.0 0.0 0.00 0.01 0.01 84 1013.0
20260507170533 57 94 0.0 0.0 0.00 0.01 0.01 84 1013.0
20260507170034 57 94 0.0 0.0 0.00 0.01 0.01 84 1013.0
20260507165533 57 94 0.0 0.0 0.00 0.01 0.01 84 1013.0
20260507165036 58 94 0.0 0.0 0.00 0.01 0.01 83 1013.0
20260507164541 58 94 0.0 0.0 0.00 0.01 0.01 83 1012.9
20260507164032 58 94 0.0 0.0 0.00 0.01 0.01 82 1013.0
20260507163533 58 94 0.0 0.0 0.00 0.01 0.01 82 1012.9
20260507163032 58 94 0.0 0.0 0.00 0.01 0.01 81 1012.9
20260507162532 58 94 0.0 2.6 0.00 0.01 0.01 80 1012.9
20260507162035 58 94 0.0 2.6 0.00 0.01 0.01 80 1012.9
20260507161536 58 85 0.0 8.7 0.00 0.01 0.01 80 1012.9
20260507161031 58 119 0.0 8.7 0.00 0.01 0.01 79 1013.0
20260507160634 58 150 0.0 8.7 0.00 0.01 0.01 79 1013.1
20260507160038 58 148 1.7 8.7 0.00 0.01 0.01 78 1013.0
20260507155532 58 120 1.7 9.6 0.00 0.01 0.01 78 1013.1
20260507155031 58 21 3.5 9.6 0.00 0.01 0.01 77 1013.1
20260507154531 58 240 0.9 13.9 0.00 0.01 0.01 77 1013.0
20260507154030 59 212 4.3 10.4 0.00 0.01 0.01 77 1013.0
20260507153529 59 219 1.7 8.7 0.00 0.01 0.01 75 1012.8
20260507153032 60 186 6.1 8.7 0.00 0.01 0.01 72 1012.9
20260507152534 60 157 1.7 8.7 0.00 0.01 0.01 69 1012.8
20260507152029 60 208 2.6 7.8 0.00 0.01 0.01 69 1012.7
20260507151530 61 104 0.9 5.2 0.00 0.01 0.01 69 1012.7
20260507151028 61 121 0.0 2.6 0.00 0.01 0.01 69 1012.7
20260507150533 61 74 0.0 4.3 0.00 0.01 0.01 68 1012.7
20260507150028 61 133 0.0 6.1 0.00 0.01 0.01 68 1012.8
20260507145527 61 173 2.6 6.1 0.00 0.01 0.01 67 1012.8
20260507145027 61 143 0.0 7.0 0.00 0.01 0.01 68 1012.8
20260507144532 62 132 0.0 6.1 0.00 0.01 0.01 67 1012.9
20260507144028 62 19 0.9 5.2 0.00 0.01 0.01 66 1012.9
20260507143526 62 178 0.0 9.6 0.00 0.01 0.01 68 1012.9
20260507143026 63 130 4.3 9.6 0.00 0.01 0.01 65 1012.9
20260507142525 63 77 0.0 8.7 0.00 0.01 0.01 67 1012.9
20260507142024 63 106 0.9 8.7 0.00 0.01 0.01 65 1013.0
20260507141524 64 112 0.9 13.0 0.00 0.01 0.01 66 1013.1
20260507141023 64 137 4.3 13.0 0.00 0.01 0.01 64 1013.2
20260507140523 64 198 5.2 12.2 0.00 0.01 0.01 65 1013.3
20260507140023 64 93 0.0 7.8 0.00 0.01 0.01 67 1013.2
20260507135520 63 73 0.0 9.6 0.00 0.01 0.01 69 1013.2
20260507135023 63 94 2.6 9.6 0.00 0.01 0.01 68 1013.2
20260507134519 62 183 0.0 6.1 0.00 0.01 0.01 70 1013.4
20260507134017 61 170 0.9 7.8 0.00 0.01 0.01 71 1013.4
20260507133516 61 123 0.9 7.8 0.00 0.01 0.01 72 1013.5
20260507133016 61 96 0.0 7.0 0.00 0.01 0.01 72 1013.6
20260507132519 60 115 1.7 7.0 0.00 0.01 0.01 72 1013.6
20260507132015 60 100 0.0 7.8 0.00 0.01 0.01 72 1013.7
20260507131526 60 103 1.7 7.8 0.00 0.01 0.01 72 1013.7
20260507131016 60 51 1.7 7.8 0.00 0.01 0.01 73 1013.7
20260507130516 60 107 1.7 7.8 0.00 0.01 0.01 71 1013.7
20260507130016 60 115 2.6 9.6 0.00 0.01 0.01 71 1013.7
20260507125515 60 179 2.6 8.7 0.00 0.01 0.01 72 1013.7
20260507125016 60 123 2.6 8.7 0.00 0.01 0.01 73 1013.7
20260507124518 60 41 0.0 7.0 0.00 0.01 0.01 74 1013.8
20260507124014 60 112 0.9 7.0 0.00 0.01 0.01 74 1013.8
20260507123515 60 57 1.7 7.0 0.00 0.01 0.01 74 1013.8
20260507123014 60 74 0.0 6.1 0.00 0.01 0.01 74 1014.0
20260507122513 60 138 0.0 5.2 0.00 0.01 0.01 75 1014.0
20260507122013 60 117 1.7 5.2 0.00 0.01 0.01 75 1014.0
20260507121514 60 60 1.7 5.2 0.00 0.01 0.01 74 1014.1
20260507121013 60 157 0.0 7.8 0.00 0.01 0.01 72 1014.1
20260507120512 60 98 2.6 7.8 0.00 0.01 0.01 74 1014.1
20260507120031 60 110 1.7 7.8 0.00 0.01 0.01 72 1014.1
20260507115512 61 194 0.9 8.7 0.00 0.01 0.01 72 1014.1
20260507115013 61 70 2.6 8.7 0.00 0.01 0.01 70 1014.1
20260507114511 62 193 0.9 7.0 0.00 0.01 0.01 70 1014.1
20260507114111 62 157 0.0 7.0 0.00 0.01 0.01 69 1014.1
20260507113513 62 181 3.5 7.0 0.00 0.01 0.01 69 1014.2
20260507113032 62 105 0.9 9.6 0.00 0.01 0.01 70 1014.2
20260507112515 62 144 3.5 9.6 0.00 0.01 0.01 70 1014.4
20260507112014 62 156 0.0 7.0 0.00 0.01 0.01 71 1014.3
20260507111507 62 145 1.7 5.2 0.00 0.01 0.01 75 1014.5
20260507111004 61 80 0.0 7.0 0.00 0.01 0.01 73 1014.5
20260507110504 61 175 2.6 7.8 0.00 0.01 0.01 77 1014.5
20260507110009 60 174 2.6 7.0 0.00 0.01 0.01 77 1014.6
20260507105503 60 119 1.7 7.0 0.00 0.01 0.01 75 1014.7
20260507105002 60 93 0.9 7.0 0.00 0.01 0.01 75 1014.7
20260507104502 60 165 0.9 9.6 0.00 0.01 0.01 76 1014.8
20260507104103 60 164 3.5 9.6 0.00 0.01 0.01 77 1014.8
20260507103559 59 158 5.2 10.4 0.00 0.01 0.01 76 1014.9
20260507103057 58 156 0.0 7.0 0.00 0.01 0.01 77 1014.9
20260507102555 58 119 1.7 6.1 0.00 0.01 0.01 81 1014.9
20260507102054 57 158 1.7 8.7 0.00 0.01 0.01 78 1014.9
20260507101600 56 119 2.6 8.7 0.00 0.01 0.01 80 1014.9
20260507101051 56 122 0.0 5.2 0.00 0.01 0.01 81 1015.0
20260507100551 55 90 0.9 6.1 0.00 0.01 0.01 80 1015.0
20260507100049 55 100 0.9 6.1 0.00 0.01 0.01 80 1015.0
20260507095548 54 127 1.7 7.0 0.00 0.01 0.01 80 1015.0
20260507095049 54 120 0.9 7.0 0.00 0.01 0.01 81 1015.0
20260507094551 53 73 0.0 5.2 0.00 0.01 0.01 82 1015.0
20260507094043 53 96 0.9 5.2 0.00 0.01 0.01 82 1014.9
20260507093542 53 155 0.0 7.8 0.00 0.01 0.01 82 1015.0
20260507093041 52 149 0.0 7.0 0.00 0.01 0.01 82 1014.9
20260507092540 52 141 2.6 7.0 0.00 0.01 0.01 82 1015.0
20260507092042 52 159 0.0 6.1 0.00 0.01 0.01 83 1014.9
20260507091538 52 117 0.9 6.1 0.00 0.01 0.01 83 1014.8
20260507091036 51 59 0.0 3.5 0.00 0.01 0.01 85 1014.8
20260507090535 51 75 0.0 3.5 0.00 0.01 0.01 84 1014.8
20260507090035 51 72 0.0 3.5 0.00 0.01 0.01 84 1014.9
20260507085534 51 44 0.0 5.2 0.00 0.01 0.01 84 1014.8
20260507085033 51 29 0.0 5.2 0.00 0.01 0.01 84 1014.8
20260507084533 51 96 0.0 3.5 0.00 0.01 0.01 84 1014.8
20260507084031 51 64 0.0 0.0 0.00 0.01 0.01 84 1014.9
20260507083531 51 65 0.0 0.9 0.00 0.01 0.01 84 1014.9
20260507083031 51 168 0.0 0.9 0.00 0.01 0.01 84 1014.8
20260507082531 51 127 0.0 0.0 0.00 0.01 0.01 85 1014.8
20260507082033 51 127 0.0 0.9 0.00 0.01 0.01 84 1014.8
20260507081541 51 122 0.0 0.9 0.01 0.01 0.01 84 1014.9
20260507081031 50 98 0.0 2.6 0.01 0.01 0.01 84 1014.9
20260507080535 50 217 0.0 2.6 0.01 0.01 0.01 84 1014.9
20260507080033 50 96 0.0 2.6 0.01 0.01 0.01 84 1014.8
20260507075529 50 98 0.0 0.0 0.01 0.01 0.01 84 1014.8
20260507075030 50 128 0.0 0.0 0.01 0.01 0.01 85 1014.9
20260507074532 50 94 0.0 1.7 0.01 0.01 0.01 84 1014.8
20260507074031 50 94 0.0 7.0 0.01 0.01 0.01 84 1014.7
20260507073529 50 155 0.9 7.0 0.01 0.01 0.01 84 1014.7
20260507073028 50 92 0.0 0.0 0.01 0.01 0.01 84 1014.8
20260507072528 50 94 0.0 0.0 0.01 0.01 0.01 84 1014.8
20260507072027 50 87 0.0 0.0 0.00 0.00 0.00 84 1014.7
20260507071534 50 133 0.0 0.0 0.00 0.00 0.00 85 1014.7
20260507071026 50 68 0.0 0.0 0.00 0.00 0.00 85 1014.7
20260507070527 50 9 0.0 0.0 0.00 0.00 0.00 85 1014.6
20260507070024 50 360 0.0 0.0 0.00 0.00 0.00 85 1014.7
20260507065525 50 279 0.0 0.0 0.00 0.00 0.00 86 1014.6
20260507065122 49 122 0.0 0.0 0.00 0.00 0.00 86 1014.6
20260507064520 49 129 0.0 0.0 0.00 0.00 0.00 86 1014.6
20260507064020 49 130 0.0 0.0 0.00 0.00 0.00 86 1014.6
20260507063518 49 130 0.0 0.0 0.00 0.00 0.00 87 1014.6
20260507063017 49 75 0.0 0.0 0.00 0.00 0.00 87 1014.6
20260507062519 49 75 0.0 0.0 0.00 0.00 0.00 87 1014.5
20260507062019 49 75 0.0 0.0 0.00 0.00 0.00 87 1014.6
20260507061521 48 74 0.0 0.0 0.00 0.00 0.00 87 1014.5
20260507061015 48 85 0.0 0.0 0.00 0.00 0.00 88 1014.5
20260507060513 48 85 0.0 0.0 0.00 0.00 0.00 88 1014.5
20260507060016 48 85 0.0 0.0 0.00 0.00 0.00 89 1014.4
20260507055512 48 85 0.0 0.0 0.00 0.00 0.00 89 1014.4
20260507055012 48 85 0.0 0.0 0.00 0.00 0.00 89 1014.4
20260507054510 48 85 0.0 0.0 0.00 0.00 0.00 89 1014.3
20260507054111 48 85 0.0 0.0 0.00 0.00 0.00 89 1014.2
20260507053508 48 85 0.0 0.0 0.00 0.00 0.00 89 1014.2
20260507053006 48 85 0.0 0.0 0.00 0.00 0.00 89 1014.2
20260507052506 48 85 0.0 0.0 0.00 0.00 0.00 89 1014.2
20260507052006 48 85 0.0 0.0 0.00 0.00 0.00 89 1014.1
20260507051505 48 85 0.0 0.0 0.00 0.00 0.00 89 1014.2
20260507051005 48 85 0.0 0.0 0.00 0.00 0.00 89 1014.1
20260507050503 48 85 0.0 0.0 0.00 0.00 0.00 89 1014.1
20260507050003 48 85 0.0 0.0 0.00 0.01 0.00 89 1014.1
20260507045503 48 85 0.0 0.0 0.00 0.01 0.00 89 1014.1
20260507045003 48 85 0.0 0.0 0.00 0.01 0.00 89 1014.1
20260507044506 48 85 0.0 0.0 0.00 0.01 0.00 89 1014.1
20260507044002 48 85 0.0 0.0 0.00 0.01 0.00 89 1014.0
20260507043502 48 85 0.0 0.0 0.00 0.01 0.00 89 1014.0
20260507043002 48 85 0.0 0.0 0.00 0.01 0.00 89 1014.0
20260507042600 48 85 0.0 0.0 0.00 0.01 0.00 89 1013.9
20260507042103 48 85 0.0 0.0 0.00 0.01 0.00 90 1013.9
20260507041610 48 86 0.0 0.0 0.00 0.01 0.00 90 1013.9
20260507041059 48 86 0.0 0.0 0.00 0.01 0.00 91 1013.9
20260507040600 48 86 0.0 0.0 0.00 0.01 0.00 91 1013.9
20260507040107 48 69 0.0 0.0 0.00 0.01 0.00 92 1013.9
20260507035558 49 69 0.0 0.0 0.00 0.01 0.00 92 1013.9
20260507035058 49 69 0.0 0.0 0.00 0.01 0.00 92 1013.9
20260507034619 49 65 0.0 0.0 0.00 0.01 0.00 92 1013.9
20260507034056 49 65 0.0 0.0 0.00 0.01 0.00 93 1013.9
20260507033556 49 65 0.0 0.0 0.00 0.01 0.00 93 1013.8
20260507033106 49 65 0.0 0.0 0.00 0.01 0.00 93 1013.8
20260507032556 49 65 0.0 0.0 0.00 0.01 0.00 93 1013.8
20260507032055 49 65 0.0 0.0 0.00 0.01 0.00 93 1013.7
20260507031555 49 65 0.0 0.0 0.00 0.01 0.00 93 1013.8
20260507031054 49 65 0.0 0.0 0.00 0.01 0.00 93 1013.8
20260507030553 49 65 0.0 0.0 0.00 0.01 0.00 93 1013.8
20260507030053 49 65 0.0 0.0 0.00 0.01 0.00 93 1013.8
20260507025554 50 65 0.0 0.0 0.00 0.01 0.00 93 1013.8
20260507025053 50 65 0.0 0.0 0.00 0.01 0.00 94 1013.9
20260507024558 50 65 0.0 0.0 0.00 0.01 0.00 94 1013.8
20260507024053 50 65 0.0 0.0 0.00 0.01 0.00 94 1013.7
20260507023552 50 65 0.0 0.0 0.00 0.01 0.00 94 1013.8
20260507023051 50 65 0.0 0.0 0.00 0.01 0.00 93 1013.7
20260507022552 50 65 0.0 0.0 0.00 0.01 0.00 94 1013.8
20260507022052 50 65 0.0 0.0 0.00 0.01 0.00 94 1013.9
20260507021558 50 65 0.0 0.0 0.00 0.01 0.00 94 1013.8
20260507021051 50 65 0.0 0.0 0.00 0.01 0.00 94 1013.8
20260507020550 50 65 0.0 0.0 0.00 0.01 0.00 94 1013.8
20260507020050 50 65 0.0 0.0 0.00 0.01 0.00 94 1013.8
20260507015550 50 65 0.0 0.0 0.00 0.01 0.00 93 1013.8
20260507015050 50 65 0.0 0.0 0.00 0.01 0.00 93 1013.8
20260507014552 50 65 0.0 0.0 0.00 0.01 0.00 93 1013.8
20260507014048 50 65 0.0 0.0 0.00 0.01 0.00 93 1013.8
20260507013548 50 65 0.0 0.0 0.00 0.01 0.00 93 1013.8
20260507013058 50 65 0.0 0.0 0.00 0.01 0.00 93 1013.8
20260507012550 50 65 0.0 0.0 0.00 0.01 0.00 93 1013.8
20260507012048 50 65 0.0 0.0 0.00 0.01 0.00 93 1013.8
20260507011547 50 65 0.0 0.0 0.00 0.01 0.00 93 1013.8
20260507011049 50 65 0.0 0.0 0.00 0.01 0.00 93 1013.8
20260507010548 50 65 0.0 0.0 0.00 0.01 0.00 93 1013.8
20260507010051 50 65 0.0 0.0 0.00 0.01 0.00 93 1013.7
20260507005549 50 65 0.0 0.0 0.00 0.01 0.00 93 1013.8
20260507005045 50 65 0.0 0.0 0.00 0.01 0.00 93 1013.8
20260507004545 50 65 0.0 0.0 0.00 0.01 0.00 93 1013.8
20260507004044 50 65 0.0 0.0 0.00 0.01 0.00 93 1013.8
20260507003544 50 65 0.0 0.0 0.00 0.01 0.00 93 1013.8
20260507003043 50 65 0.0 0.0 0.00 0.01 0.00 93 1013.9
20260507002543 50 65 0.0 0.0 0.00 0.01 0.00 93 1013.9
20260507002043 50 65 0.0 0.0 0.00 0.01 0.00 93 1013.9
20260507001604 50 65 0.0 0.0 0.00 0.01 0.00 93 1013.9
20260507001042 50 65 0.0 0.0 0.00 0.01 0.00 93 1014.0
20260507000541 50 65 0.0 0.0 0.00 0.01 0.00 92 1014.0
20260507000041 51 65 0.0 0.0 0.00 0.01 0.00 92 1014.0
20260506235540 51 65 0.0 0.0 0.00 0.01 0.00 92 1014.0
20260506235040 51 65 0.0 0.0 0.00 0.01 0.00 92 1014.1
20260506234549 51 65 0.0 0.0 0.00 0.01 0.00 92 1014.0
20260506234040 51 65 0.0 0.0 0.00 0.01 0.00 92 1014.0
20260506233541 51 65 0.0 0.0 0.00 0.01 0.00 92 1014.1
20260506233040 51 65 0.0 0.0 0.00 0.01 0.00 92 1014.0
20260506232539 51 65 0.0 0.0 0.00 0.01 0.00 92 1014.1
20260506232040 51 65 0.0 0.0 0.00 0.01 0.00 92 1014.1
20260506231539 51 65 0.0 0.0 0.00 0.01 0.00 92 1014.1
20260506231040 51 65 0.0 0.0 0.00 0.01 0.00 92 1014.1
20260506230538 51 65 0.0 0.0 0.00 0.01 0.00 91 1014.1
20260506230038 51 65 0.0 0.0 0.00 0.01 0.00 91 1014.2
20260506225538 51 65 0.0 0.0 0.00 0.01 0.00 91 1014.2
20260506225040 51 65 0.0 0.0 0.00 0.01 0.00 91 1014.1
20260506224546 51 65 0.0 0.0 0.00 0.01 0.00 91 1014.1
20260506224036 51 65 0.0 0.0 0.00 0.01 0.00 91 1014.1
20260506223536 51 65 0.0 0.0 0.00 0.01 0.00 91 1014.1
20260506223036 51 65 0.0 0.0 0.00 0.01 0.00 91 1014.1
20260506222539 51 65 0.0 0.0 0.00 0.01 0.00 91 1014.1
20260506222036 51 65 0.0 0.0 0.00 0.01 0.00 91 1014.2
20260506221536 51 65 0.0 0.0 0.00 0.01 0.00 90 1014.1
20260506221035 51 65 0.0 0.0 0.00 0.01 0.00 90 1014.0
20260506220535 51 65 0.0 0.0 0.00 0.01 0.00 90 1014.1
20260506220043 51 65 0.0 0.0 0.00 0.01 0.00 90 1014.1
20260506215534 51 65 0.0 0.0 0.00 0.01 0.01 90 1014.1
20260506215034 51 65 0.0 0.0 0.00 0.01 0.01 90 1014.1
20260506214535 51 65 0.0 0.0 0.00 0.01 0.01 90 1014.1
20260506214036 51 65 0.0 0.0 0.00 0.01 0.01 90 1014.1
20260506213533 51 65 0.0 0.0 0.00 0.01 0.01 90 1014.1
20260506213033 51 65 0.0 0.0 0.00 0.01 0.01 90 1014.1
20260506212534 51 65 0.0 0.0 0.00 0.01 0.01 90 1014.1
20260506212033 51 65 0.0 0.0 0.00 0.01 0.01 89 1014.1
20260506211532 51 65 0.0 0.0 0.00 0.01 0.01 89 1014.1
20260506211035 51 65 0.0 0.0 0.00 0.01 0.01 89 1014.2
20260506210533 51 65 0.0 0.0 0.00 0.01 0.01 88 1014.1
20260506210032 51 65 0.0 0.0 0.00 0.01 0.01 88 1014.1
20260506205536 52 65 0.0 0.0 0.00 0.01 0.01 88 1014.2
20260506205035 52 65 0.0 0.0 0.00 0.01 0.01 88 1014.1
20260506204536 52 65 0.0 0.0 0.00 0.01 0.01 88 1014.1
20260506204033 52 65 0.0 0.0 0.00 0.01 0.01 88 1014.1
20260506203530 52 65 0.0 0.0 0.00 0.01 0.01 87 1014.1
20260506203030 52 65 0.0 0.0 0.00 0.01 0.01 87 1014.0
20260506202530 52 65 0.0 0.0 0.00 0.01 0.01 87 1014.0
20260506202030 52 65 0.0 0.0 0.00 0.01 0.01 87 1014.0
20260506201529 52 65 0.0 0.0 0.00 0.01 0.01 87 1013.9
20260506201028 52 65 0.0 0.0 0.00 0.01 0.01 87 1013.9
20260506200531 52 65 0.0 0.0 0.00 0.01 0.01 86 1013.9
20260506200027 52 65 0.0 0.0 0.00 0.01 0.01 86 1013.7
20260506195530 53 65 0.0 0.0 0.00 0.01 0.01 85 1013.7
20260506195027 53 65 0.0 0.0 0.00 0.01 0.01 85 1013.7
20260506194533 53 65 0.0 0.0 0.00 0.01 0.01 85 1013.6